Year,Month,Day,Hour,Minute,Value (Times are PST for temperature in C)
2010,04,22,00,00,7.10
2010,04,22,00,01,7.10
2010,04,22,00,02,7.10
2010,04,22,00,03,7.10
2010,04,22,00,04,7.10
2010,04,22,00,05,7.10
2010,04,22,00,06,7.00
2010,04,22,00,07,7.00
2010,04,22,00,08,7.00
2010,04,22,00,09,7.00
2010,04,22,00,10,7.00
2010,04,22,00,11,7.00
2010,04,22,00,12,7.00
2010,04,22,00,13,6.90
2010,04,22,00,14,6.90
2010,04,22,00,15,6.90
2010,04,22,00,16,6.90
2010,04,22,00,17,6.80
2010,04,22,00,18,6.80
2010,04,22,00,19,6.80
2010,04,22,00,20,6.80
2010,04,22,00,21,6.80
2010,04,22,00,22,6.80
2010,04,22,00,23,6.80
2010,04,22,00,24,6.80
2010,04,22,00,25,6.70
2010,04,22,00,26,6.70
2010,04,22,00,27,6.70
2010,04,22,00,28,6.70
2010,04,22,00,29,6.60
2010,04,22,00,30,6.60
2010,04,22,00,31,6.60
2010,04,22,00,32,6.60
2010,04,22,00,33,6.60
2010,04,22,00,34,6.60
2010,04,22,00,35,6.50
2010,04,22,00,36,6.50
2010,04,22,00,37,6.50
2010,04,22,00,38,6.50
2010,04,22,00,39,6.40
2010,04,22,00,40,6.40
2010,04,22,00,41,6.40
2010,04,22,00,42,6.40
2010,04,22,00,43,6.30
2010,04,22,00,44,6.30
2010,04,22,00,45,6.30
2010,04,22,00,46,6.30
2010,04,22,00,47,6.30
2010,04,22,00,48,6.20
2010,04,22,00,49,6.20
2010,04,22,00,50,6.20
2010,04,22,00,51,6.20
2010,04,22,00,52,6.20
2010,04,22,00,53,6.20
2010,04,22,00,54,6.20
2010,04,22,00,55,6.10
2010,04,22,00,56,6.10
2010,04,22,00,57,6.10
2010,04,22,00,58,6.10
2010,04,22,00,59,6.10
2010,04,22,01,00,6.00
2010,04,22,01,01,6.00
2010,04,22,01,02,6.00
2010,04,22,01,03,6.00
2010,04,22,01,04,6.00
2010,04,22,01,05,5.90
2010,04,22,01,06,5.90
2010,04,22,01,07,5.90
2010,04,22,01,08,5.90
2010,04,22,01,09,5.90
2010,04,22,01,10,5.90
2010,04,22,01,11,5.90
2010,04,22,01,12,5.90
2010,04,22,01,13,5.90
2010,04,22,01,14,5.90
2010,04,22,01,15,5.80
2010,04,22,01,16,5.80
2010,04,22,01,17,5.80
2010,04,22,01,18,5.80
2010,04,22,01,19,5.80
2010,04,22,01,20,5.80
2010,04,22,01,21,5.70
2010,04,22,01,22,5.70
2010,04,22,01,23,5.70
2010,04,22,01,24,5.70
2010,04,22,01,25,5.70
2010,04,22,01,26,5.70
2010,04,22,01,27,5.70
2010,04,22,01,28,5.70
2010,04,22,01,29,5.70
2010,04,22,01,30,5.70
2010,04,22,01,31,5.60
2010,04,22,01,32,5.60
2010,04,22,01,33,5.60
2010,04,22,01,34,5.50
2010,04,22,01,35,5.50
2010,04,22,01,36,5.50
2010,04,22,01,37,5.50
2010,04,22,01,38,5.40
2010,04,22,01,39,5.40
2010,04,22,01,40,5.40
2010,04,22,01,41,5.40
2010,04,22,01,42,5.40
2010,04,22,01,43,5.40
2010,04,22,01,44,5.40
2010,04,22,01,45,5.40
2010,04,22,01,46,5.40
2010,04,22,01,47,5.40
2010,04,22,01,48,5.40
2010,04,22,01,49,5.30
2010,04,22,01,50,5.30
2010,04,22,01,51,5.30
2010,04,22,01,52,5.30
2010,04,22,01,53,5.30
2010,04,22,01,54,5.30
2010,04,22,01,55,5.30
2010,04,22,01,56,5.30
2010,04,22,01,57,5.30
2010,04,22,01,58,5.30
2010,04,22,01,59,5.30
2010,04,22,02,00,5.30
2010,04,22,02,01,5.30
2010,04,22,02,02,5.30
2010,04,22,02,03,5.30
2010,04,22,02,04,5.20
2010,04,22,02,05,5.20
2010,04,22,02,06,5.20
2010,04,22,02,07,5.20
2010,04,22,02,08,5.20
2010,04,22,02,09,5.20
2010,04,22,02,10,5.20
2010,04,22,02,11,5.20
2010,04,22,02,12,5.20
2010,04,22,02,13,5.10
2010,04,22,02,14,5.10
2010,04,22,02,15,5.10
2010,04,22,02,16,5.10
2010,04,22,02,17,5.10
2010,04,22,02,18,5.10
2010,04,22,02,19,5.10
2010,04,22,02,20,5.10
2010,04,22,02,21,5.00
2010,04,22,02,22,5.00
2010,04,22,02,23,5.00
2010,04,22,02,24,5.00
2010,04,22,02,25,5.00
2010,04,22,02,26,5.00
2010,04,22,02,27,5.00
2010,04,22,02,28,5.00
2010,04,22,02,29,4.90
2010,04,22,02,30,4.90
2010,04,22,02,31,4.90
2010,04,22,02,32,4.90
2010,04,22,02,33,4.90
2010,04,22,02,34,4.90
2010,04,22,02,35,4.90
2010,04,22,02,36,4.90
2010,04,22,02,37,4.90
2010,04,22,02,38,4.90
2010,04,22,02,39,4.90
2010,04,22,02,40,4.90
2010,04,22,02,41,4.90
2010,04,22,02,42,4.90
2010,04,22,02,43,4.90
2010,04,22,02,44,4.90
2010,04,22,02,45,4.90
2010,04,22,02,46,4.90
2010,04,22,02,47,4.90
2010,04,22,02,48,4.90
2010,04,22,02,49,4.80
2010,04,22,02,50,4.80
2010,04,22,02,51,4.80
2010,04,22,02,52,4.80
2010,04,22,02,53,4.80
2010,04,22,02,54,4.80
2010,04,22,02,55,4.80
2010,04,22,02,56,4.80
2010,04,22,02,57,4.80
2010,04,22,02,58,4.80
2010,04,22,02,59,4.80
2010,04,22,03,00,4.70
2010,04,22,03,01,4.70
2010,04,22,03,02,4.70
2010,04,22,03,03,4.70
2010,04,22,03,04,4.70
2010,04,22,03,05,4.70
2010,04,22,03,06,4.80
2010,04,22,03,07,4.80
2010,04,22,03,08,4.80
2010,04,22,03,09,4.80
2010,04,22,03,10,4.80
2010,04,22,03,11,4.80
2010,04,22,03,12,4.80
2010,04,22,03,13,4.80
2010,04,22,03,14,4.80
2010,04,22,03,15,4.90
2010,04,22,03,16,4.80
2010,04,22,03,17,4.90
2010,04,22,03,18,4.90
2010,04,22,03,19,4.90
2010,04,22,03,20,4.90
2010,04,22,03,21,4.90
2010,04,22,03,22,4.90
2010,04,22,03,23,4.90
2010,04,22,03,24,4.90
2010,04,22,03,25,4.90
2010,04,22,03,26,4.90
2010,04,22,03,27,4.80
2010,04,22,03,28,4.80
2010,04,22,03,29,4.80
2010,04,22,03,30,4.80
2010,04,22,03,31,4.80
2010,04,22,03,32,4.80
2010,04,22,03,33,4.80
2010,04,22,03,34,4.80
2010,04,22,03,35,4.80
2010,04,22,03,36,4.80
2010,04,22,03,37,4.80
2010,04,22,03,38,4.80
2010,04,22,03,39,4.70
2010,04,22,03,40,4.70
2010,04,22,03,41,4.70
2010,04,22,03,42,4.70
2010,04,22,03,43,4.70
2010,04,22,03,44,4.70
2010,04,22,03,45,4.80
2010,04,22,03,46,4.80
2010,04,22,03,47,4.80
2010,04,22,03,48,4.80
2010,04,22,03,49,4.80
2010,04,22,03,50,4.80
2010,04,22,03,51,4.80
2010,04,22,03,52,4.80
2010,04,22,03,53,4.80
2010,04,22,03,54,4.80
2010,04,22,03,55,4.80
2010,04,22,03,56,4.80
2010,04,22,03,57,4.80
2010,04,22,03,58,4.80
2010,04,22,03,59,4.80
2010,04,22,04,00,4.80
2010,04,22,04,01,4.80
2010,04,22,04,02,4.80
2010,04,22,04,03,4.80
2010,04,22,04,04,4.80
2010,04,22,04,05,4.80
2010,04,22,04,06,4.80
2010,04,22,04,07,4.80
2010,04,22,04,08,4.80
2010,04,22,04,09,4.80
2010,04,22,04,10,4.80
2010,04,22,04,11,4.80
2010,04,22,04,12,4.80
2010,04,22,04,13,4.80
2010,04,22,04,14,4.80
2010,04,22,04,15,4.80
2010,04,22,04,16,4.80
2010,04,22,04,17,4.80
2010,04,22,04,18,4.80
2010,04,22,04,19,4.80
2010,04,22,04,20,4.80
2010,04,22,04,21,4.80
2010,04,22,04,22,4.80
2010,04,22,04,23,4.80
2010,04,22,04,24,4.70
2010,04,22,04,25,4.70
2010,04,22,04,26,4.70
2010,04,22,04,27,4.70
2010,04,22,04,28,4.70
2010,04,22,04,29,4.70
2010,04,22,04,30,4.70
2010,04,22,04,31,4.70
2010,04,22,04,32,4.70
2010,04,22,04,33,4.70
2010,04,22,04,34,4.70
2010,04,22,04,35,4.70
2010,04,22,04,36,4.70
2010,04,22,04,37,4.70
2010,04,22,04,38,4.70
2010,04,22,04,39,4.70
2010,04,22,04,40,4.60
2010,04,22,04,41,4.60
2010,04,22,04,42,4.60
2010,04,22,04,43,4.60
2010,04,22,04,44,4.60
2010,04,22,04,45,4.60
2010,04,22,04,46,4.60
2010,04,22,04,47,4.60
2010,04,22,04,48,4.60
2010,04,22,04,49,4.60
2010,04,22,04,50,4.60
2010,04,22,04,51,4.60
2010,04,22,04,52,4.50
2010,04,22,04,53,4.50
2010,04,22,04,54,4.50
2010,04,22,04,55,4.50
2010,04,22,04,56,4.40
2010,04,22,04,57,4.40
2010,04,22,04,58,4.40
2010,04,22,04,59,4.40
2010,04,22,05,00,4.40
2010,04,22,05,01,4.40
2010,04,22,05,02,4.40
2010,04,22,05,03,4.30
2010,04,22,05,04,4.40
2010,04,22,05,05,4.30
2010,04,22,05,06,4.40
2010,04,22,05,07,4.40
2010,04,22,05,08,4.40
2010,04,22,05,09,4.40
2010,04,22,05,10,4.40
2010,04,22,05,11,4.40
2010,04,22,05,12,4.40
2010,04,22,05,13,4.30
2010,04,22,05,14,4.30
2010,04,22,05,15,4.30
2010,04,22,05,16,4.30
2010,04,22,05,17,4.30
2010,04,22,05,18,4.30
2010,04,22,05,19,4.30
2010,04,22,05,20,4.30
2010,04,22,05,21,4.30
2010,04,22,05,22,4.30
2010,04,22,05,23,4.30
2010,04,22,05,24,4.20
2010,04,22,05,25,4.20
2010,04,22,05,26,4.20
2010,04,22,05,27,4.20
2010,04,22,05,28,4.20
2010,04,22,05,29,4.10
2010,04,22,05,30,4.10
2010,04,22,05,31,4.10
2010,04,22,05,32,4.10
2010,04,22,05,33,4.00
2010,04,22,05,34,4.00
2010,04,22,05,35,4.00
2010,04,22,05,36,3.90
2010,04,22,05,37,3.90
2010,04,22,05,38,3.90
2010,04,22,05,39,3.90
2010,04,22,05,40,3.90
2010,04,22,05,41,3.90
2010,04,22,05,42,3.90
2010,04,22,05,43,3.90
2010,04,22,05,44,3.90
2010,04,22,05,45,3.90
2010,04,22,05,46,3.90
2010,04,22,05,47,3.90
2010,04,22,05,48,3.90
2010,04,22,05,49,3.90
2010,04,22,05,50,3.90
2010,04,22,05,51,3.90
2010,04,22,05,52,3.90
2010,04,22,05,53,3.90
2010,04,22,05,54,3.90
2010,04,22,05,55,3.90
2010,04,22,05,56,3.90
2010,04,22,05,57,3.90
2010,04,22,05,58,3.90
2010,04,22,05,59,3.90
2010,04,22,06,00,3.90
2010,04,22,06,01,3.90
2010,04,22,06,02,3.90
2010,04,22,06,03,3.90
2010,04,22,06,04,3.90
2010,04,22,06,05,3.90
2010,04,22,06,06,3.80
2010,04,22,06,07,3.80
2010,04,22,06,08,3.80
2010,04,22,06,09,3.80
2010,04,22,06,10,3.80
2010,04,22,06,11,3.80
2010,04,22,06,12,3.80
2010,04,22,06,13,3.80
2010,04,22,06,14,3.80
2010,04,22,06,15,3.80
2010,04,22,06,16,3.80
2010,04,22,06,17,3.70
2010,04,22,06,18,3.80
2010,04,22,06,19,3.80
2010,04,22,06,20,3.80
2010,04,22,06,21,3.80
2010,04,22,06,22,3.70
2010,04,22,06,23,3.70
2010,04,22,06,24,3.70
2010,04,22,06,25,3.70
2010,04,22,06,26,3.70
2010,04,22,06,27,3.70
2010,04,22,06,28,3.70
2010,04,22,06,29,3.70
2010,04,22,06,30,3.70
2010,04,22,06,31,3.70
2010,04,22,06,32,3.70
2010,04,22,06,33,3.80
2010,04,22,06,34,3.80
2010,04,22,06,35,3.80
2010,04,22,06,36,3.80
2010,04,22,06,37,3.80
2010,04,22,06,38,3.80
2010,04,22,06,39,3.80
2010,04,22,06,40,3.80
2010,04,22,06,41,3.80
2010,04,22,06,42,3.80
2010,04,22,06,43,3.80
2010,04,22,06,44,3.80
2010,04,22,06,45,3.80
2010,04,22,06,46,3.80
2010,04,22,06,47,3.80
2010,04,22,06,48,3.80
2010,04,22,06,49,3.80
2010,04,22,06,50,3.80
2010,04,22,06,51,3.80
2010,04,22,06,52,3.80
2010,04,22,06,53,3.80
2010,04,22,06,54,3.80
2010,04,22,06,55,3.80
2010,04,22,06,56,3.80
2010,04,22,06,57,3.90
2010,04,22,06,58,3.90
2010,04,22,06,59,3.90
2010,04,22,07,00,3.90
2010,04,22,07,01,4.00
2010,04,22,07,02,4.00
2010,04,22,07,03,4.10
2010,04,22,07,04,4.10
2010,04,22,07,05,4.20
2010,04,22,07,06,4.20
2010,04,22,07,07,4.20
2010,04,22,07,08,4.20
2010,04,22,07,09,4.30
2010,04,22,07,10,4.30
2010,04,22,07,11,4.40
2010,04,22,07,12,4.50
2010,04,22,07,13,4.50
2010,04,22,07,14,4.60
2010,04,22,07,15,4.70
2010,04,22,07,16,4.80
2010,04,22,07,17,4.90
2010,04,22,07,18,5.00
2010,04,22,07,19,5.20
2010,04,22,07,20,5.30
2010,04,22,07,21,5.40
2010,04,22,07,22,5.40
2010,04,22,07,23,5.50
2010,04,22,07,24,5.60
2010,04,22,07,25,5.70
2010,04,22,07,26,5.70
2010,04,22,07,27,5.80
2010,04,22,07,28,5.80
2010,04,22,07,29,5.90
2010,04,22,07,30,6.00
2010,04,22,07,31,6.10
2010,04,22,07,32,6.20
2010,04,22,07,33,6.30
2010,04,22,07,34,6.40
2010,04,22,07,35,6.50
2010,04,22,07,36,6.60
2010,04,22,07,37,6.70
2010,04,22,07,38,6.80
2010,04,22,07,39,6.90
2010,04,22,07,40,6.90
2010,04,22,07,41,7.00
2010,04,22,07,42,7.10
2010,04,22,07,43,7.20
2010,04,22,07,44,7.30
2010,04,22,07,45,7.40
2010,04,22,07,46,7.40
2010,04,22,07,47,7.50
2010,04,22,07,48,7.60
2010,04,22,07,49,7.70
2010,04,22,07,50,7.70
2010,04,22,07,51,7.80
2010,04,22,07,52,7.80
2010,04,22,07,53,7.90
2010,04,22,07,54,7.90
2010,04,22,07,55,7.90
2010,04,22,07,56,8.00
2010,04,22,07,57,8.00
2010,04,22,07,58,8.00
2010,04,22,07,59,8.10
2010,04,22,08,00,8.10
2010,04,22,08,01,8.20
2010,04,22,08,02,8.20
2010,04,22,08,03,8.30
2010,04,22,08,04,8.30
2010,04,22,08,05,8.40
2010,04,22,08,06,8.40
2010,04,22,08,07,8.40
2010,04,22,08,08,8.50
2010,04,22,08,09,8.60
2010,04,22,08,10,8.60
2010,04,22,08,11,8.60
2010,04,22,08,12,8.60
2010,04,22,08,13,8.60
2010,04,22,08,14,8.70
2010,04,22,08,15,8.70
2010,04,22,08,16,8.70
2010,04,22,08,17,8.70
2010,04,22,08,18,8.70
2010,04,22,08,19,8.80
2010,04,22,08,20,8.80
2010,04,22,08,21,8.80
2010,04,22,08,22,8.80
2010,04,22,08,23,8.80
2010,04,22,08,24,8.90
2010,04,22,08,25,8.90
2010,04,22,08,26,8.90
2010,04,22,08,27,9.00
2010,04,22,08,28,9.00
2010,04,22,08,29,9.10
2010,04,22,08,30,9.10
2010,04,22,08,31,9.10
2010,04,22,08,32,9.10
2010,04,22,08,33,9.20
2010,04,22,08,34,9.20
2010,04,22,08,35,9.30
2010,04,22,08,36,9.30
2010,04,22,08,37,9.30
2010,04,22,08,38,9.30
2010,04,22,08,39,9.40
2010,04,22,08,40,9.40
2010,04,22,08,41,9.40
2010,04,22,08,42,9.50
2010,04,22,08,43,9.50
2010,04,22,08,44,9.60
2010,04,22,08,45,9.60
2010,04,22,08,46,9.60
2010,04,22,08,47,9.70
2010,04,22,08,48,9.70
2010,04,22,08,49,9.70
2010,04,22,08,50,9.70
2010,04,22,08,51,9.80
2010,04,22,08,52,9.80
2010,04,22,08,53,9.90
2010,04,22,08,54,10.00
2010,04,22,08,55,10.10
2010,04,22,08,56,10.10
2010,04,22,08,57,10.20
2010,04,22,08,58,10.20
2010,04,22,08,59,10.20
2010,04,22,09,00,10.30
2010,04,22,09,01,10.30
2010,04,22,09,02,10.40
2010,04,22,09,03,10.40
2010,04,22,09,04,10.50
2010,04,22,09,05,10.50
2010,04,22,09,06,10.60
2010,04,22,09,07,10.70
2010,04,22,09,08,10.70
2010,04,22,09,09,10.70
2010,04,22,09,10,10.70
2010,04,22,09,11,10.70
2010,04,22,09,12,10.70
2010,04,22,09,13,10.70
2010,04,22,09,14,10.70
2010,04,22,09,15,10.60
2010,04,22,09,16,10.60
2010,04,22,09,17,10.60
2010,04,22,09,18,10.60
2010,04,22,09,19,10.60
2010,04,22,09,20,10.60
2010,04,22,09,21,10.70
2010,04,22,09,22,10.70
2010,04,22,09,23,10.70
2010,04,22,09,24,10.80
2010,04,22,09,25,10.80
2010,04,22,09,26,10.80
2010,04,22,09,27,10.80
2010,04,22,09,28,10.80
2010,04,22,09,29,10.90
2010,04,22,09,30,10.90
2010,04,22,09,31,10.90
2010,04,22,09,32,10.90
2010,04,22,09,33,10.90
2010,04,22,09,34,10.90
2010,04,22,09,35,10.90
2010,04,22,09,36,10.80
2010,04,22,09,37,10.80
2010,04,22,09,38,10.80
2010,04,22,09,39,10.80
2010,04,22,09,40,10.80
2010,04,22,09,41,10.80
2010,04,22,09,42,10.90
2010,04,22,09,43,10.90
2010,04,22,09,44,10.90
2010,04,22,09,45,10.90
2010,04,22,09,46,11.00
2010,04,22,09,47,11.00
2010,04,22,09,48,11.10
2010,04,22,09,49,11.20
2010,04,22,09,50,11.20
2010,04,22,09,51,11.20
2010,04,22,09,52,11.30
2010,04,22,09,53,11.30
2010,04,22,09,54,11.40
2010,04,22,09,55,11.40
2010,04,22,09,56,11.40
2010,04,22,09,57,11.40
2010,04,22,09,58,11.40
2010,04,22,09,59,11.40
2010,04,22,10,00,11.50
2010,04,22,10,01,11.50
2010,04,22,10,02,11.60
2010,04,22,10,03,11.60
2010,04,22,10,04,11.70
2010,04,22,10,05,11.70
2010,04,22,10,06,11.80
2010,04,22,10,07,11.90
2010,04,22,10,08,11.90
2010,04,22,10,09,11.90
2010,04,22,10,10,11.90
2010,04,22,10,11,11.90
2010,04,22,10,12,11.90
2010,04,22,10,13,12.00
2010,04,22,10,14,12.10
2010,04,22,10,15,12.20
2010,04,22,10,16,12.20
2010,04,22,10,17,12.30
2010,04,22,10,18,12.40
2010,04,22,10,19,12.50
2010,04,22,10,20,12.50
2010,04,22,10,21,12.60
2010,04,22,10,22,12.70
2010,04,22,10,23,12.70
2010,04,22,10,24,12.80
2010,04,22,10,25,12.80
2010,04,22,10,26,12.90
2010,04,22,10,27,12.90
2010,04,22,10,28,12.90
2010,04,22,10,29,13.00
2010,04,22,10,30,13.00
2010,04,22,10,31,13.00
2010,04,22,10,32,13.00
2010,04,22,10,33,13.10
2010,04,22,10,34,13.10
2010,04,22,10,35,13.10
2010,04,22,10,36,13.20
2010,04,22,10,37,13.20
2010,04,22,10,38,13.20
2010,04,22,10,39,13.20
2010,04,22,10,40,13.20
2010,04,22,10,41,13.20
2010,04,22,10,42,13.30
2010,04,22,10,43,13.30
2010,04,22,10,44,13.20
2010,04,22,10,45,13.10
2010,04,22,10,46,13.00
2010,04,22,10,47,12.90
2010,04,22,10,48,12.90
2010,04,22,10,49,12.90
2010,04,22,10,50,12.90
2010,04,22,10,51,12.90
2010,04,22,10,52,12.90
2010,04,22,10,53,12.90
2010,04,22,10,54,12.90
2010,04,22,10,55,13.00
2010,04,22,10,56,13.00
2010,04,22,10,57,12.90
2010,04,22,10,58,12.90
2010,04,22,10,59,12.90
2010,04,22,11,00,12.90
2010,04,22,11,01,12.90
2010,04,22,11,02,12.80
2010,04,22,11,03,12.80
2010,04,22,11,04,12.80
2010,04,22,11,05,12.80
2010,04,22,11,06,12.70
2010,04,22,11,07,12.70
2010,04,22,11,08,12.60
2010,04,22,11,09,12.60
2010,04,22,11,10,12.60
2010,04,22,11,11,12.60
2010,04,22,11,12,12.60
2010,04,22,11,13,12.50
2010,04,22,11,14,12.40
2010,04,22,11,15,12.40
2010,04,22,11,16,12.30
2010,04,22,11,17,12.30
2010,04,22,11,18,12.30
2010,04,22,11,19,12.30
2010,04,22,11,20,12.30
2010,04,22,11,21,12.30
2010,04,22,11,22,12.30
2010,04,22,11,23,12.30
2010,04,22,11,24,12.40
2010,04,22,11,25,12.40
2010,04,22,11,26,12.40
2010,04,22,11,27,12.50
2010,04,22,11,28,12.50
2010,04,22,11,29,12.60
2010,04,22,11,30,12.60
2010,04,22,11,31,12.60
2010,04,22,11,32,12.60
2010,04,22,11,33,12.70
2010,04,22,11,34,12.70
2010,04,22,11,35,12.70
2010,04,22,11,36,12.70
2010,04,22,11,37,12.70
2010,04,22,11,38,12.80
2010,04,22,11,39,12.80
2010,04,22,11,40,12.80
2010,04,22,11,41,12.80
2010,04,22,11,42,12.80
2010,04,22,11,43,12.80
2010,04,22,11,44,12.80
2010,04,22,11,45,12.80
2010,04,22,11,46,12.90
2010,04,22,11,47,12.90
2010,04,22,11,48,13.00
2010,04,22,11,49,13.10
2010,04,22,11,50,13.20
2010,04,22,11,51,13.30
2010,04,22,11,52,13.30
2010,04,22,11,53,13.30
2010,04,22,11,54,13.30
2010,04,22,11,55,13.20
2010,04,22,11,56,13.20
2010,04,22,11,57,13.20
2010,04,22,11,58,13.30
2010,04,22,11,59,13.40
2010,04,22,12,00,13.50
2010,04,22,12,01,13.60
2010,04,22,12,02,13.70
2010,04,22,12,03,13.70
2010,04,22,12,04,13.70
2010,04,22,12,05,13.70
2010,04,22,12,06,13.70
2010,04,22,12,07,13.70
2010,04,22,12,08,13.70
2010,04,22,12,09,13.70
2010,04,22,12,10,13.70
2010,04,22,12,11,13.80
2010,04,22,12,12,13.80
2010,04,22,12,13,13.80
2010,04,22,12,14,13.70
2010,04,22,12,15,13.70
2010,04,22,12,16,13.70
2010,04,22,12,17,13.60
2010,04,22,12,18,13.50
2010,04,22,12,19,13.60
2010,04,22,12,20,13.60
2010,04,22,12,21,13.70
2010,04,22,12,22,13.70
2010,04,22,12,23,13.80
2010,04,22,12,24,13.80
2010,04,22,12,25,13.80
2010,04,22,12,26,13.80
2010,04,22,12,27,13.90
2010,04,22,12,28,14.00
2010,04,22,12,29,14.20
2010,04,22,12,30,14.20
2010,04,22,12,31,14.30
2010,04,22,12,32,14.30
2010,04,22,12,33,14.30
2010,04,22,12,34,14.30
2010,04,22,12,35,14.30
2010,04,22,12,36,14.20
2010,04,22,12,37,14.20
2010,04,22,12,38,14.10
2010,04,22,12,39,14.00
2010,04,22,12,40,13.90
2010,04,22,12,41,13.90
2010,04,22,12,42,13.90
2010,04,22,12,43,13.90
2010,04,22,12,44,13.90
2010,04,22,12,45,13.80
2010,04,22,12,46,13.80
2010,04,22,12,47,13.80
2010,04,22,12,48,13.80
2010,04,22,12,49,13.80
2010,04,22,12,50,13.90
2010,04,22,12,51,14.00
2010,04,22,12,52,14.00
2010,04,22,12,53,14.10
2010,04,22,12,54,14.10
2010,04,22,12,55,14.20
2010,04,22,12,56,14.30
2010,04,22,12,57,14.30
2010,04,22,12,58,14.30
2010,04,22,12,59,14.30
2010,04,22,13,00,14.40
2010,04,22,13,01,14.50
2010,04,22,13,02,14.60
2010,04,22,13,03,14.70
2010,04,22,13,04,14.80
2010,04,22,13,05,14.90
2010,04,22,13,06,15.10
2010,04,22,13,07,15.30
2010,04,22,13,08,15.30
2010,04,22,13,09,15.30
2010,04,22,13,10,15.30
2010,04,22,13,11,15.20
2010,04,22,13,12,15.00
2010,04,22,13,13,14.80
2010,04,22,13,14,14.60
2010,04,22,13,15,14.40
2010,04,22,13,16,14.30
2010,04,22,13,17,14.20
2010,04,22,13,18,14.10
2010,04,22,13,19,14.00
2010,04,22,13,20,14.00
2010,04,22,13,21,13.90
2010,04,22,13,22,13.80
2010,04,22,13,23,13.70
2010,04,22,13,24,13.70
2010,04,22,13,25,13.60
2010,04,22,13,26,13.60
2010,04,22,13,27,13.60
2010,04,22,13,28,13.60
2010,04,22,13,29,13.60
2010,04,22,13,30,13.60
2010,04,22,13,31,13.70
2010,04,22,13,32,13.70
2010,04,22,13,33,13.70
2010,04,22,13,34,13.70
2010,04,22,13,35,13.70
2010,04,22,13,36,13.70
2010,04,22,13,37,13.70
2010,04,22,13,38,13.70
2010,04,22,13,39,13.70
2010,04,22,13,40,13.80
2010,04,22,13,41,13.90
2010,04,22,13,42,14.00
2010,04,22,13,43,14.10
2010,04,22,13,44,14.00
2010,04,22,13,45,14.00
2010,04,22,13,46,14.00
2010,04,22,13,47,13.90
2010,04,22,13,48,13.80
2010,04,22,13,49,13.80
2010,04,22,13,50,13.80
2010,04,22,13,51,13.80
2010,04,22,13,52,13.80
2010,04,22,13,53,13.80
2010,04,22,13,54,13.70
2010,04,22,13,55,13.60
2010,04,22,13,56,13.50
2010,04,22,13,57,13.50
2010,04,22,13,58,13.40
2010,04,22,13,59,13.40
2010,04,22,14,00,13.30
2010,04,22,14,01,13.30
2010,04,22,14,02,13.20
2010,04,22,14,03,13.20
2010,04,22,14,04,13.10
2010,04,22,14,05,13.20
2010,04,22,14,06,13.20
2010,04,22,14,07,13.10
2010,04,22,14,08,13.00
2010,04,22,14,09,13.00
2010,04,22,14,10,12.90
2010,04,22,14,11,12.90
2010,04,22,14,12,12.80
2010,04,22,14,13,12.80
2010,04,22,14,14,12.80
2010,04,22,14,15,12.80
2010,04,22,14,16,12.80
2010,04,22,14,17,12.80
2010,04,22,14,18,12.80
2010,04,22,14,19,12.80
2010,04,22,14,20,12.90
2010,04,22,14,21,12.80
2010,04,22,14,22,12.80
2010,04,22,14,23,12.70
2010,04,22,14,24,12.80
2010,04,22,14,25,12.80
2010,04,22,14,26,12.90
2010,04,22,14,27,13.00
2010,04,22,14,28,13.00
2010,04,22,14,29,13.10
2010,04,22,14,30,13.20
2010,04,22,14,31,13.20
2010,04,22,14,32,13.20
2010,04,22,14,33,13.20
2010,04,22,14,34,13.20
2010,04,22,14,35,13.10
2010,04,22,14,36,13.10
2010,04,22,14,37,13.10
2010,04,22,14,38,13.00
2010,04,22,14,39,13.00
2010,04,22,14,40,13.00
2010,04,22,14,41,12.90
2010,04,22,14,42,12.90
2010,04,22,14,43,12.80
2010,04,22,14,44,12.80
2010,04,22,14,45,12.80
2010,04,22,14,46,12.80
2010,04,22,14,47,12.80
2010,04,22,14,48,12.70
2010,04,22,14,49,12.70
2010,04,22,14,50,12.70
2010,04,22,14,51,12.80
2010,04,22,14,52,12.80
2010,04,22,14,53,12.80
2010,04,22,14,54,12.80
2010,04,22,14,55,12.80
2010,04,22,14,56,12.80
2010,04,22,14,57,12.80
2010,04,22,14,58,12.80
2010,04,22,14,59,12.90
2010,04,22,15,00,12.90
2010,04,22,15,01,13.00
2010,04,22,15,02,13.00
2010,04,22,15,03,13.10
2010,04,22,15,04,13.20
2010,04,22,15,05,13.20
2010,04,22,15,06,13.20
2010,04,22,15,07,13.10
2010,04,22,15,08,13.00
2010,04,22,15,09,12.90
2010,04,22,15,10,12.80
2010,04,22,15,11,12.80
2010,04,22,15,12,12.80
2010,04,22,15,13,12.80
2010,04,22,15,14,12.80
2010,04,22,15,15,12.70
2010,04,22,15,16,12.70
2010,04,22,15,17,12.80
2010,04,22,15,18,12.70
2010,04,22,15,19,12.70
2010,04,22,15,20,12.70
2010,04,22,15,21,12.80
2010,04,22,15,22,12.70
2010,04,22,15,23,12.70
2010,04,22,15,24,12.70
2010,04,22,15,25,12.80
2010,04,22,15,26,12.80
2010,04,22,15,27,12.80
2010,04,22,15,28,12.80
2010,04,22,15,29,12.80
2010,04,22,15,30,12.70
2010,04,22,15,31,12.70
2010,04,22,15,32,12.70
2010,04,22,15,33,12.70
2010,04,22,15,34,12.70
2010,04,22,15,35,12.70
2010,04,22,15,36,12.80
2010,04,22,15,37,12.80
2010,04,22,15,38,12.80
2010,04,22,15,39,12.90
2010,04,22,15,40,12.90
2010,04,22,15,41,12.90
2010,04,22,15,42,12.90
2010,04,22,15,43,12.90
2010,04,22,15,44,12.90
2010,04,22,15,45,12.80
2010,04,22,15,46,12.80
2010,04,22,15,47,12.80
2010,04,22,15,48,12.90
2010,04,22,15,49,12.90
2010,04,22,15,50,12.90
2010,04,22,15,51,12.90
2010,04,22,15,52,12.90
2010,04,22,15,53,12.90
2010,04,22,15,54,12.90
2010,04,22,15,55,12.90
2010,04,22,15,56,12.90
2010,04,22,15,57,12.90
2010,04,22,15,58,12.90
2010,04,22,15,59,13.00
2010,04,22,16,00,13.00
2010,04,22,16,01,13.00
2010,04,22,16,02,13.00
2010,04,22,16,03,13.10
2010,04,22,16,04,13.10
2010,04,22,16,05,13.10
2010,04,22,16,06,13.10
2010,04,22,16,07,13.10
2010,04,22,16,08,13.00
2010,04,22,16,09,13.00
2010,04,22,16,10,13.00
2010,04,22,16,11,13.00
2010,04,22,16,12,13.00
2010,04,22,16,13,13.10
2010,04,22,16,14,13.10
2010,04,22,16,15,13.10
2010,04,22,16,16,13.10
2010,04,22,16,17,13.20
2010,04,22,16,18,13.20
2010,04,22,16,19,13.20
2010,04,22,16,20,13.20
2010,04,22,16,21,13.20
2010,04,22,16,22,13.20
2010,04,22,16,23,13.30
2010,04,22,16,24,13.30
2010,04,22,16,25,13.30
2010,04,22,16,26,13.30
2010,04,22,16,27,13.30
2010,04,22,16,28,13.30
2010,04,22,16,29,13.30
2010,04,22,16,30,13.30
2010,04,22,16,31,13.30
2010,04,22,16,32,13.30
2010,04,22,16,33,13.40
2010,04,22,16,34,13.50
2010,04,22,16,35,13.60
2010,04,22,16,36,13.60
2010,04,22,16,37,13.70
2010,04,22,16,38,13.70
2010,04,22,16,39,13.70
2010,04,22,16,40,13.70
2010,04,22,16,41,13.70
2010,04,22,16,42,13.70
2010,04,22,16,43,13.70
2010,04,22,16,44,13.80
2010,04,22,16,45,13.80
2010,04,22,16,46,13.90
2010,04,22,16,47,13.90
2010,04,22,16,48,14.00
2010,04,22,16,49,14.00
2010,04,22,16,50,14.10
2010,04,22,16,51,14.10
2010,04,22,16,52,14.10
2010,04,22,16,53,14.10
2010,04,22,16,54,14.10
2010,04,22,16,55,14.10
2010,04,22,16,56,14.10
2010,04,22,16,57,14.00
2010,04,22,16,58,14.00
2010,04,22,16,59,13.90
2010,04,22,17,00,13.70
2010,04,22,17,01,13.70
2010,04,22,17,02,13.60
2010,04,22,17,03,13.50
2010,04,22,17,04,13.50
2010,04,22,17,05,13.50
2010,04,22,17,06,13.50
2010,04,22,17,07,13.50
2010,04,22,17,08,13.40
2010,04,22,17,09,13.40
2010,04,22,17,10,13.40
2010,04,22,17,11,13.40
2010,04,22,17,12,13.30
2010,04,22,17,13,13.30
2010,04,22,17,14,13.30
2010,04,22,17,15,13.40
2010,04,22,17,16,13.40
2010,04,22,17,17,13.40
2010,04,22,17,18,13.40
2010,04,22,17,19,13.40
2010,04,22,17,20,13.50
2010,04,22,17,21,13.50
2010,04,22,17,22,13.40
2010,04,22,17,23,13.40
2010,04,22,17,24,13.40
2010,04,22,17,25,13.30
2010,04,22,17,26,13.30
2010,04,22,17,27,13.30
2010,04,22,17,28,13.30
2010,04,22,17,29,13.30
2010,04,22,17,30,13.40
2010,04,22,17,31,13.40
2010,04,22,17,32,13.40
2010,04,22,17,33,13.40
2010,04,22,17,34,13.40
2010,04,22,17,35,13.40
2010,04,22,17,36,13.40
2010,04,22,17,37,13.40
2010,04,22,17,38,13.40
2010,04,22,17,39,13.40
2010,04,22,17,40,13.50
2010,04,22,17,41,13.50
2010,04,22,17,42,13.60